055  
ASUS41 KOKX 201906  
RWROKX  
 
REGIONAL WEATHER ROUNDUP  
NATIONAL WEATHER SERVICE NEW YORK NY  
300 PM EDT WED JUN 20 2018  
 
NOTE: "FAIR" INDICATES FEW OR NO CLOUDS BELOW 12,000 FEET WITH NO  
SIGNIFICANT WEATHER AND/OR S TO VISIBILITY
.  
 
NYZ071-072-176-178-NJZ106-104-202000-  
NEW YORK CITY METRO AREA  
 
CITY SKY/WX TMP DP RH WIND PRES REMARKS
 
CENTRAL PARK FAIR 81 56 42 CALM 29.85F  
BRONX BOT GARD N/A 82 52 34 E2 29.83F  
BRONX LEHMAN C N/A 82 50 32 SE7 N/A  
LAGUARDIA ARPT PTSUNNY 83 51 33 SE9G18 29.82F  
QUEENS COLLEGE N/A 79 54 41 S7 N/A  
KENNEDY INTL PTSUNNY 76 59 55 S7 29.85F  
BREEZY POINT N/A 68 N/A N/A SE8 N/A  
BROOKLYN COLL N/A 77 57 50 SE8 N/A  
STATEN ISLAND N/A 79 61 53 SE6 N/A  
NEWARK/LIBERTY PTSUNNY 84 56 38 VRB3 29.81F  
TETERBORO PTSUNNY 83 54 36 VRB5 29.81F  

 
 
NYZ177-179-078>081-202000-  
LONG ISLAND NEW YORK  
 
CITY SKY/WX TMP DP RH WIND PRES REMARKS
 
JONES BEACH N/A 70 N/A N/A S6 N/A  
WANTAGH N/A N/A N/A N/A S6 N/A  
HEMPSTEAD N/A 79 54 41 SW6 29.86F  
MATINECOCK PT N/A 68 N/A N/A E9 N/A  
FARMINGDALE FAIR 78 54 43 S8 29.84S  
MACARTHUR/ISP CLOUDY 76 60 57 SW7 29.84S  
STONY BROOK N/A 81 57 44 SW6 N/A  
SHIRLEY FAIR 76 66 71 S9 29.85S  
MT SINAI HARB N/A 73 N/A N/A NE2 N/A  
WESTHAMPTON FAIR 75 63 66 SW12 29.86F  
EAST HAMPTON FAIR 73 64 74 SW10 29.84F  
SOUTHOLD N/A 75 64 69 S7 N/A  
MONTAUK N/A 75 65 70 VRB6 29.86F  

 
 
NYZ052-065-067-202000-  
HUDSON VALLEY  
 
CITY SKY/WX TMP DP RH WIND PRES REMARKS
 
WHITE PLAINS FAIR 80 52 37 VRB3 29.83F  
LARCHMONT HARB N/A 68 N/A N/A NE9 N/A  
CROTON ON HUDS N/A 79 N/A N/A MISG N/A  
SOMERS N/A 79 57 47 S6 N/A  
BREWSTER N/A 79 57 47 S3 N/A  
NEWBURGH PTSUNNY 79 59 50 VRB6 29.85F  
MONTGOMERY FAIR 78 55 44 CALM 29.83F  
OTISVILLE N/A 75 54 46 S6 N/A  
WARWICK N/A 79 59 50 NW7 N/A  
SUFFERN N/A 81 55 41 NE3 N/A  
POUGHKEEPSIE FAIR 78 55 44 SW8 29.82F  
ALBANY CLOUDY 73 55 53 VRB6 29.85F  

 
 
NJZ001-105-106-008-010-013-015-019>022-104-202000-  
NEW JERSEY  
 
CITY SKY/WX TMP DP RH WIND PRES REMARKS
 
NEWARK/LIBERTY PTSUNNY 84 56 38 VRB3 29.81F  
TETERBORO PTSUNNY 83 54 36 VRB5 29.81F  
CALDWELL FAIR 82 53 36 VRB5 29.82F  
SOMERVILLE FAIR 85 58 39 NW7 29.80  
LINDEN NOT AVBL  
PERTH AMBOY N/A 73 N/A N/A E13 N/A  
SUSSEX PTSUNNY 79 58 48 CALM 29.83F  
ANDOVER N/A 82 58 43 SW8 29.84F  
TRENTON FAIR 86 61 42 CALM 29.80F  
MILLVILLE FAIR 82 66 58 S8 29.82F  
ATLANTIC CITY PTSUNNY 83 59 44 S15G22 29.83F  
WRIGHTSTOWN FAIR 87 61 41 S7 29.78  
TOMS RIVER PTSUNNY 82 66 58 S12 29.82S  
BELMAR FAIR 80 68 66 SE9 29.84F  

 
 
PAZ047>061-062-071-202000-  
EASTERN PENNSYLVANIA  
 
CITY SKY/WX TMP DP RH WIND PRES REMARKS
 
PHILADELPHIA PTSUNNY 83 68 60 S13G20 29.81F  
ALLENTOWN FAIR 85 57 38 VRB3 29.82F  
SCRANTON CLOUDY 79 58 48 CALM 29.84F  

 
 
CTZ002-004>006-009-010-012-RIZ004-006-007-MAZ004-011-015-202000-  
SOUTHERN NEW ENGLAND  
 
IN CT  
 
CITY SKY/WX TMP DP RH WIND PRES REMARKS
 
BRADLEY INTL PTSUNNY 80 54 40 SW5 29.82F  
HARTFORD FAIR 81 54 39 SW7 29.81F  
DANBURY FAIR 77 55 46 VRB5 29.85F  
WTRBURY/OXFORD FAIR 79 56 45 S6 29.86F  
NORWALK HARBOR N/A 70 N/A N/A E7 N/A  
BRIDGEPORT FAIR 74 56 53 E7 29.84S  
MERIDEN FAIR 81 54 39 S10 29.82F  
NEW HAVEN PTSUNNY 77 55 46 S5 29.84F  
CHESTER FAIR 81 50 34 SW10 29.84F  
GROTON FAIR 73 60 63 S8 29.83F  
WILLIMANTIC FAIR 81 55 40 VRB7 29.82F  
 
IN RI  
 
CITY SKY/WX TMP DP RH WIND PRES REMARKS
 
PROVIDENCE PTSUNNY 84 53 34 W7 29.82F  
BLOCK ISLAND FAIR 71 64 78 SW12 29.86F  
WESTERLY FAIR 77 63 61 S10 29.85F  
 
IN MA  
 
CITY SKY/WX TMP DP RH WIND PRES REMARKS
 
BOSTON CLOUDY 83 49 30 SW13 29.78F  
WORCESTER FAIR 73 53 49 W10 29.85F  
WESTFIELD FAIR 80 55 42 SW9 29.82F  
PROVINCETOWN FAIR 72 59 63 SW16G25 29.82F  
NANTUCKET FAIR 67 61 81 S12 29.86F  

 
 
ANZ330-335-338-340-345-350-353-355-202000-  
COASTAL MARINE OBSERVATIONS  
 
 
STATION/POSITION TIME SKY/WX TEMP WIND PRES VSBY WAVE
 
AIR SEA DIR/SP/G HT/PER  
(UTC) (F) (DEG/KT/KT) (MB) (MI) (FT/S)  
NY HARB ENTRANCE 1850 69 68 160/ 4/ 6 1010.2 2/ 6  
20 S FIRE ISLAND 1850 69 69 200/ 8/ 10 1010.5 2/ 6  
GREAT SOUTH BAY 1830 69 76 180/ 6/ 8 N/A  
23 SSW MONTAUK P 1850 66 65 200/ 8/ 8 1011.2 2/ 9  
15 E BARNEGAT LI 1830 71 N/A 2/ 6  
HUDSON CANYON 1850 68 66 170/ 6/ 6 1010.2 2/ 8  
KINGS POINT 1842 76 65 210/ 3/ 4 1011.1  
EXECUTION ROCKS NOT AVBL  
WESTERN LI SOUND 1820 69 70/ 8/ 10 N/A 0  
CENTRAL LI SOUND NOT AVBL  
ROBBINS REEF 1842 71 170/ 12/ 12 1010.6  

 
 
>>>>>>>>>>>>>>>>>>>>>>>>>>>> KEY <<<<<<<<<<<<<<<<<<<<<<<<<<<  
> <  
> SKY/WX - SKY CONDITION/PRESENT WEATHER <  
> TMP - TEMPERATURE IN FAHRENHEIT <  
> DP - DEW POINT IN FAHRENHEIT <  
> RH - RELATIVE HUMIDITY IN PERCENT <  
> WIND - DIRECTION (FROM) AND SPEED IN MPH <  
> PRES - MEAN SEA LEVEL PRESSURE (INCHES OF HG) <  
> WCI - WIND CHILL INDEX <  
> VSB - VISIBILITY IN MILES <  
> HX - HEAT INDEX <  
> TC - TEMPERATURE IN CELSIUS <  
> VRB - VARIBALE WIND DIRECTION <  
> <  
>>>>>>>>>>>>>>>>>>>>>>>>>>>> KEY <<<<<<<<<<<<<<<<<<<<<<<<<<<  
 
 
CLICK HERE TO GO TO PREVIOUS BULLETINS.

The Nexlab NY Page
The Nexlab NJ Page
The Nexlab CT Page Main Text Page